Time,TemperatureF,DewpointF,PressureIn,WindDirection,WindDirectionDegrees,WindSpeedMPH,WindSpeedGustMPH,Humidity,HourlyPrecipIn,Conditions,Clouds,dailyrainin,SoftwareType,DateUTC
2013-02-28 00:05:00,43.0,39.1,29.91,ENE,74,0.0,0.0,86,0.00,,,0.00,Weather View 32 v70,2013-02-28 08:05:00,
2013-02-28 00:10:00,43.0,39.1,29.91,ENE,74,0.0,0.0,86,0.00,,,0.00,Weather View 32 v70,2013-02-28 08:10:00,
2013-02-28 00:15:00,43.0,39.1,29.91,ENE,74,0.0,0.0,86,0.00,,,0.00,Weather View 32 v70,2013-02-28 08:15:00,
2013-02-28 00:20:00,43.0,39.1,29.91,ENE,74,0.0,0.0,86,0.00,,,0.00,Weather View 32 v70,2013-02-28 08:20:00,
2013-02-28 00:30:00,43.0,39.1,29.91,ENE,74,0.0,0.0,86,0.00,,,0.00,Weather View 32 v70,2013-02-28 08:30:00,
2013-02-28 00:35:00,43.0,39.1,29.91,ENE,74,0.0,0.0,86,0.00,,,0.00,Weather View 32 v70,2013-02-28 08:35:00,
2013-02-28 00:45:00,43.0,39.1,29.91,ENE,74,0.0,0.0,86,0.00,,,0.00,Weather View 32 v70,2013-02-28 08:45:00,
2013-02-28 00:55:00,42.8,38.9,29.91,ENE,74,0.0,4.0,86,0.00,,,0.00,Weather View 32 v70,2013-02-28 08:55:00,
2013-02-28 01:00:00,42.8,38.9,29.91,ENE,74,0.0,4.0,86,0.00,,,0.00,Weather View 32 v70,2013-02-28 09:00:00,
2013-02-28 01:05:00,42.8,38.9,29.91,ENE,74,0.0,4.0,86,0.00,,,0.00,Weather View 32 v70,2013-02-28 09:05:00,
2013-02-28 01:10:00,42.8,38.9,29.91,ENE,74,0.0,4.0,86,0.00,,,0.00,Weather View 32 v70,2013-02-28 09:10:00,
2013-02-28 01:20:00,42.8,38.9,29.91,ENE,74,0.0,4.0,86,0.00,,,0.00,Weather View 32 v70,2013-02-28 09:20:00,
2013-02-28 01:30:00,42.6,39.0,29.91,ENE,74,0.0,4.0,87,0.00,,,0.00,Weather View 32 v70,2013-02-28 09:30:00,
2013-02-28 01:35:00,42.6,39.0,29.91,SSE,154,0.0,4.0,87,0.00,,,0.00,Weather View 32 v70,2013-02-28 09:35:00,
2013-02-28 01:45:00,42.6,39.0,29.88,SSE,165,0.0,4.0,87,0.00,,,0.00,Weather View 32 v70,2013-02-28 09:45:00,
2013-02-28 01:50:00,42.6,39.0,29.88,SSE,165,0.0,4.0,87,0.00,,,0.00,Weather View 32 v70,2013-02-28 09:50:00,
2013-02-28 01:55:00,42.6,39.0,29.88,SSE,165,2.0,4.0,87,0.00,,,0.00,Weather View 32 v70,2013-02-28 09:55:00,
2013-02-28 02:00:00,42.6,39.0,29.88,SSE,165,0.0,4.0,87,0.00,,,0.00,Weather View 32 v70,2013-02-28 10:00:00,
2013-02-28 02:10:00,42.6,39.0,29.88,South,172,0.0,4.0,87,0.00,,,0.00,Weather View 32 v70,2013-02-28 10:10:00,
2013-02-28 02:15:00,42.4,38.8,29.88,South,173,0.0,5.0,87,0.00,,,0.00,Weather View 32 v70,2013-02-28 10:15:00,
2013-02-28 02:20:00,42.4,38.8,29.88,SE,135,3.0,5.0,87,0.00,,,0.00,Weather View 32 v70,2013-02-28 10:20:00,
2013-02-28 02:25:00,42.4,38.8,29.88,South,172,0.0,6.0,87,0.00,,,0.00,Weather View 32 v70,2013-02-28 10:25:00,
2013-02-28 02:30:00,42.4,38.8,29.88,SSE,150,0.0,6.0,87,0.00,,,0.00,Weather View 32 v70,2013-02-28 10:30:00,
2013-02-28 02:40:00,42.4,38.8,29.88,South,175,0.0,6.0,87,0.00,,,0.00,Weather View 32 v70,2013-02-28 10:40:00,
2013-02-28 02:45:00,42.4,38.8,29.88,South,169,0.0,6.0,87,0.00,,,0.00,Weather View 32 v70,2013-02-28 10:45:00,
2013-02-28 02:55:00,42.4,39.1,29.88,South,169,0.0,6.0,88,0.00,,,0.00,Weather View 32 v70,2013-02-28 10:55:00,
2013-02-28 03:05:00,42.4,38.8,29.88,South,169,0.0,6.0,87,0.00,,,0.00,Weather View 32 v70,2013-02-28 11:05:00,
2013-02-28 03:10:00,42.4,38.8,29.88,South,169,0.0,6.0,87,0.00,,,0.00,Weather View 32 v70,2013-02-28 11:10:00,
2013-02-28 03:15:00,42.4,39.1,29.88,South,169,0.0,6.0,88,0.00,,,0.00,Weather View 32 v70,2013-02-28 11:15:00,
2013-02-28 03:25:00,42.4,39.1,29.88,South,169,0.0,5.0,88,0.00,,,0.00,Weather View 32 v70,2013-02-28 11:25:00,
2013-02-28 03:30:00,42.4,39.1,29.88,South,169,0.0,4.0,88,0.00,,,0.00,Weather View 32 v70,2013-02-28 11:30:00,
2013-02-28 03:40:00,42.4,39.1,29.88,South,169,0.0,3.0,88,0.00,,,0.00,Weather View 32 v70,2013-02-28 11:40:00,
2013-02-28 03:45:00,42.4,39.1,29.88,South,169,0.0,2.0,88,0.00,,,0.00,Weather View 32 v70,2013-02-28 11:45:00,
2013-02-28 03:55:00,42.4,39.1,29.88,South,169,0.0,0.0,88,0.00,,,0.00,Weather View 32 v70,2013-02-28 11:55:00,
2013-02-28 04:00:00,42.4,39.1,29.88,South,169,0.0,0.0,88,0.00,,,0.00,Weather View 32 v70,2013-02-28 12:00:00,
2013-02-28 04:05:00,42.4,39.1,29.88,South,169,0.0,0.0,88,0.00,,,0.00,Weather View 32 v70,2013-02-28 12:05:00,
2013-02-28 04:10:00,42.4,39.1,29.88,South,169,0.0,0.0,88,0.00,,,0.00,Weather View 32 v70,2013-02-28 12:10:00,
2013-02-28 04:15:00,42.4,39.1,29.88,South,169,0.0,0.0,88,0.00,,,0.00,Weather View 32 v70,2013-02-28 12:15:00,
2013-02-28 04:25:00,42.4,39.1,29.88,South,169,0.0,0.0,88,0.00,,,0.00,Weather View 32 v70,2013-02-28 12:25:00,
2013-02-28 04:30:00,42.4,39.1,29.88,South,169,0.0,0.0,88,0.00,,,0.00,Weather View 32 v70,2013-02-28 12:30:00,
2013-02-28 04:35:00,42.4,39.1,29.88,South,169,0.0,0.0,88,0.00,,,0.00,Weather View 32 v70,2013-02-28 12:35:00,
2013-02-28 04:40:00,42.4,39.1,29.85,South,169,0.0,0.0,88,0.00,,,0.00,Weather View 32 v70,2013-02-28 12:40:00,
2013-02-28 04:50:00,42.4,39.1,29.85,South,169,0.0,0.0,88,0.00,,,0.00,Weather View 32 v70,2013-02-28 12:50:00,
2013-02-28 04:55:00,42.4,39.1,29.85,South,169,0.0,0.0,88,0.00,,,0.00,Weather View 32 v70,2013-02-28 12:55:00,
2013-02-28 05:00:00,42.4,39.1,29.85,South,169,0.0,0.0,88,0.00,,,0.00,Weather View 32 v70,2013-02-28 13:00:00,
2013-02-28 05:05:00,42.4,39.1,29.85,South,169,0.0,0.0,88,0.00,,,0.00,Weather View 32 v70,2013-02-28 13:05:00,
2013-02-28 05:15:00,42.4,39.1,29.85,South,169,0.0,0.0,88,0.00,,,0.00,Weather View 32 v70,2013-02-28 13:15:00,
2013-02-28 05:20:00,42.4,39.1,29.85,South,169,0.0,0.0,88,0.00,,,0.00,Weather View 32 v70,2013-02-28 13:20:00,
2013-02-28 05:25:00,42.4,39.1,29.85,South,169,0.0,0.0,88,0.00,,,0.00,Weather View 32 v70,2013-02-28 13:25:00,
2013-02-28 05:30:00,42.4,39.1,29.85,South,169,0.0,0.0,88,0.00,,,0.00,Weather View 32 v70,2013-02-28 13:30:00,
2013-02-28 05:40:00,42.4,39.1,29.85,South,169,0.0,0.0,88,0.00,,,0.00,Weather View 32 v70,2013-02-28 13:40:00,
2013-02-28 05:45:00,42.4,39.4,29.85,South,169,0.0,0.0,89,0.00,,,0.00,Weather View 32 v70,2013-02-28 13:45:00,
2013-02-28 05:50:00,42.4,39.4,29.85,South,169,0.0,0.0,89,0.00,,,0.00,Weather View 32 v70,2013-02-28 13:50:00,
2013-02-28 06:00:00,42.4,39.4,29.85,South,169,0.0,0.0,89,0.00,,,0.00,Weather View 32 v70,2013-02-28 14:00:00,
2013-02-28 06:05:00,42.4,39.4,29.85,South,169,0.0,0.0,89,0.00,,,0.00,Weather View 32 v70,2013-02-28 14:05:00,
2013-02-28 06:10:00,42.4,39.4,29.85,South,169,0.0,0.0,89,0.00,,,0.00,Weather View 32 v70,2013-02-28 14:10:00,
2013-02-28 06:15:00,42.3,39.2,29.85,South,169,0.0,0.0,89,0.00,,,0.00,Weather View 32 v70,2013-02-28 14:15:00,
2013-02-28 06:25:00,42.4,39.4,29.85,South,169,0.0,0.0,89,0.00,,,0.00,Weather View 32 v70,2013-02-28 14:25:00,
2013-02-28 06:30:00,42.4,39.4,29.85,South,169,0.0,0.0,89,0.00,,,0.00,Weather View 32 v70,2013-02-28 14:30:00,
2013-02-28 06:35:00,42.3,39.2,29.85,South,169,0.0,0.0,89,0.00,,,0.00,Weather View 32 v70,2013-02-28 14:35:00,
2013-02-28 06:40:00,42.3,39.2,29.85,South,169,0.0,0.0,89,0.00,,,0.00,Weather View 32 v70,2013-02-28 14:40:00,
2013-02-28 06:50:00,42.4,39.4,29.85,South,169,0.0,0.0,89,0.00,,,0.00,Weather View 32 v70,2013-02-28 14:50:00,
2013-02-28 06:55:00,42.4,39.4,29.85,South,169,0.0,0.0,89,0.00,,,0.00,Weather View 32 v70,2013-02-28 14:55:00,
2013-02-28 07:00:00,42.4,39.4,29.85,South,169,0.0,0.0,89,0.00,,,0.00,Weather View 32 v70,2013-02-28 15:00:00,
2013-02-28 07:05:00,42.4,39.4,29.85,South,169,0.0,0.0,89,0.00,,,0.00,Weather View 32 v70,2013-02-28 15:05:00,
2013-02-28 07:15:00,42.4,39.4,29.85,South,169,0.0,0.0,89,0.00,,,0.00,Weather View 32 v70,2013-02-28 15:15:00,
2013-02-28 07:20:00,42.4,39.4,29.85,South,169,0.0,0.0,89,0.00,,,0.00,Weather View 32 v70,2013-02-28 15:20:00,
2013-02-28 07:25:00,42.4,39.4,29.83,South,169,0.0,0.0,89,0.00,,,0.00,Weather View 32 v70,2013-02-28 15:25:00,
2013-02-28 07:30:00,42.4,39.4,29.83,South,169,0.0,0.0,89,0.00,,,0.00,Weather View 32 v70,2013-02-28 15:30:00,
2013-02-28 07:40:00,42.6,39.6,29.83,South,169,0.0,0.0,89,0.00,,,0.00,Weather View 32 v70,2013-02-28 15:40:00,
2013-02-28 07:45:00,42.6,39.9,29.83,South,169,0.0,0.0,90,0.00,,,0.00,Weather View 32 v70,2013-02-28 15:45:00,
2013-02-28 07:50:00,42.6,39.9,29.83,South,169,0.0,0.0,90,0.00,,,0.00,Weather View 32 v70,2013-02-28 15:50:00,
2013-02-28 07:55:00,42.8,39.8,29.83,South,169,0.0,0.0,89,0.00,,,0.00,Weather View 32 v70,2013-02-28 15:55:00,
2013-02-28 08:00:00,42.8,39.8,29.83,South,169,0.0,0.0,89,0.00,,,0.00,Weather View 32 v70,2013-02-28 16:00:00,
2013-02-28 08:05:00,42.8,40.1,29.83,South,169,0.0,0.0,90,0.00,,,0.00,Weather View 32 v70,2013-02-28 16:05:00,
2013-02-28 08:15:00,42.8,40.1,29.83,South,169,0.0,0.0,90,0.00,,,0.00,Weather View 32 v70,2013-02-28 16:15:00,
2013-02-28 08:25:00,43.0,40.2,29.83,South,169,0.0,0.0,90,0.00,,,0.00,Weather View 32 v70,2013-02-28 16:25:00,
2013-02-28 08:35:00,43.0,40.2,29.83,South,169,0.0,0.0,90,0.00,,,0.00,Weather View 32 v70,2013-02-28 16:35:00,
2013-02-28 08:40:00,43.2,40.4,29.85,South,169,0.0,0.0,90,0.00,,,0.00,Weather View 32 v70,2013-02-28 16:40:00,
2013-02-28 08:45:00,43.3,40.6,29.85,South,169,0.0,0.0,90,0.00,,,0.00,Weather View 32 v70,2013-02-28 16:45:00,
2013-02-28 08:55:00,43.3,40.6,29.85,South,169,0.0,0.0,90,0.00,,,0.00,Weather View 32 v70,2013-02-28 16:55:00,
2013-02-28 09:00:00,43.3,40.6,29.85,South,169,0.0,0.0,90,0.00,,,0.00,Weather View 32 v70,2013-02-28 17:00:00,
2013-02-28 09:05:00,43.5,40.8,29.85,South,169,0.0,0.0,90,0.00,,,0.00,Weather View 32 v70,2013-02-28 17:05:00,
2013-02-28 09:10:00,43.5,40.8,29.85,South,169,0.0,0.0,90,0.00,,,0.00,Weather View 32 v70,2013-02-28 17:10:00,
2013-02-28 09:18:00,43.5,40.8,29.85,South,169,0.0,0.0,90,0.00,,,0.00,Weather View 32 v70,2013-02-28 17:18:00,
2013-02-28 09:25:00,43.7,41.0,29.85,South,169,0.0,0.0,90,0.00,,,0.00,Weather View 32 v70,2013-02-28 17:25:00,
2013-02-28 09:30:00,43.9,41.4,29.85,South,169,0.0,0.0,91,0.00,,,0.00,Weather View 32 v70,2013-02-28 17:30:00,
2013-02-28 09:35:00,43.9,41.4,29.85,South,169,0.0,0.0,91,0.00,,,0.00,Weather View 32 v70,2013-02-28 17:35:00,
2013-02-28 09:45:00,44.1,41.6,29.85,South,169,0.0,0.0,91,0.00,,,0.00,Weather View 32 v70,2013-02-28 17:45:00,
2013-02-28 09:55:00,44.2,41.8,29.85,SSW,200,0.0,3.0,91,0.00,,,0.00,Weather View 32 v70,2013-02-28 17:55:00,
2013-02-28 10:00:00,44.4,42.0,29.85,SSW,200,0.0,3.0,91,0.00,,,0.00,Weather View 32 v70,2013-02-28 18:00:00,
2013-02-28 10:10:00,44.8,42.3,29.85,SSW,200,0.0,3.0,91,0.00,,,0.00,Weather View 32 v70,2013-02-28 18:10:00,
2013-02-28 10:15:00,45.0,42.5,29.85,SSW,200,0.0,3.0,91,0.00,,,0.00,Weather View 32 v70,2013-02-28 18:15:00,
2013-02-28 10:25:00,45.0,42.5,29.85,South,184,0.0,3.0,91,0.00,,,0.00,Weather View 32 v70,2013-02-28 18:25:00,
2013-02-28 10:30:00,45.1,42.7,29.85,South,184,0.0,3.0,91,0.00,,,0.00,Weather View 32 v70,2013-02-28 18:30:00,
2013-02-28 10:40:00,45.1,42.7,29.85,South,184,0.0,3.0,91,0.00,,,0.00,Weather View 32 v70,2013-02-28 18:40:00,
2013-02-28 10:45:00,45.3,42.8,29.85,South,184,0.0,3.0,91,0.00,,,0.00,Weather View 32 v70,2013-02-28 18:45:00,
2013-02-28 10:50:00,45.3,42.8,29.85,South,184,0.0,3.0,91,0.00,,,0.00,Weather View 32 v70,2013-02-28 18:50:00,
2013-02-28 10:55:00,45.5,43.0,29.85,South,184,0.0,3.0,91,0.00,,,0.00,Weather View 32 v70,2013-02-28 18:55:00,
2013-02-28 11:05:00,45.5,43.3,29.85,South,184,0.0,3.0,92,0.00,,,0.00,Weather View 32 v70,2013-02-28 19:05:00,
2013-02-28 11:10:00,45.7,43.5,29.85,South,184,0.0,3.0,92,0.00,,,0.00,Weather View 32 v70,2013-02-28 19:10:00,
2013-02-28 11:15:00,45.7,43.5,29.85,South,184,0.0,3.0,92,0.00,,,0.00,Weather View 32 v70,2013-02-28 19:15:00,
2013-02-28 11:20:00,45.9,43.7,29.85,South,184,0.0,3.0,92,0.00,,,0.00,Weather View 32 v70,2013-02-28 19:20:00,
2013-02-28 11:25:00,45.9,43.7,29.85,South,184,0.0,0.0,92,0.00,,,0.00,Weather View 32 v70,2013-02-28 19:25:00,
2013-02-28 11:30:00,46.0,43.8,29.85,South,184,0.0,0.0,92,0.00,,,0.00,Weather View 32 v70,2013-02-28 19:30:00,
2013-02-28 11:40:00,46.2,44.0,29.85,South,184,0.0,0.0,92,0.00,,,0.00,Weather View 32 v70,2013-02-28 19:40:00,
2013-02-28 11:45:00,46.4,44.2,29.85,South,184,0.0,0.0,92,0.00,,,0.00,Weather View 32 v70,2013-02-28 19:45:00,
2013-02-28 11:50:00,46.6,44.4,29.85,South,184,0.0,0.0,92,0.00,,,0.00,Weather View 32 v70,2013-02-28 19:50:00,
2013-02-28 11:55:00,46.6,44.4,29.88,South,184,0.0,2.0,92,0.00,,,0.00,Weather View 32 v70,2013-02-28 19:55:00,
2013-02-28 12:00:00,46.6,44.4,29.88,South,184,0.0,2.0,92,0.00,,,0.00,Weather View 32 v70,2013-02-28 20:00:00,
2013-02-28 12:05:00,46.6,44.4,29.88,West,267,0.0,5.0,92,0.00,,,0.00,Weather View 32 v70,2013-02-28 20:05:00,
2013-02-28 12:15:00,46.8,44.6,29.88,West,267,0.0,5.0,92,0.00,,,0.00,Weather View 32 v70,2013-02-28 20:15:00,
2013-02-28 12:20:00,46.8,44.6,29.88,West,267,0.0,5.0,92,0.00,,,0.00,Weather View 32 v70,2013-02-28 20:20:00,
2013-02-28 12:25:00,46.8,44.6,29.88,West,267,0.0,5.0,92,0.00,,,0.00,Weather View 32 v70,2013-02-28 20:25:00,
2013-02-28 12:35:00,46.9,44.7,29.88,West,267,3.0,5.0,92,0.00,,,0.00,Weather View 32 v70,2013-02-28 20:35:00,
2013-02-28 12:40:00,46.9,44.7,29.88,SSE,155,0.0,5.0,92,0.00,,,0.00,Weather View 32 v70,2013-02-28 20:40:00,
2013-02-28 12:45:00,46.9,44.7,29.88,SSE,155,0.0,5.0,92,0.00,,,0.00,Weather View 32 v70,2013-02-28 20:45:00,
2013-02-28 12:50:00,46.9,44.7,29.88,SSE,155,0.0,5.0,92,0.00,,,0.00,Weather View 32 v70,2013-02-28 20:50:00,
2013-02-28 13:20:00,48.0,46.1,29.88,South,171,3.0,5.0,93,0.00,,,0.00,Weather View 32 v70,2013-02-28 21:20:00,
2013-02-28 13:25:00,48.2,46.3,29.88,South,175,0.0,5.0,93,0.00,,,0.00,Weather View 32 v70,2013-02-28 21:25:00,
2013-02-28 13:35:00,48.4,46.4,29.88,North,353,3.0,5.0,93,0.00,,,0.00,Weather View 32 v70,2013-02-28 21:35:00,
2013-02-28 13:40:00,48.4,46.4,29.88,South,181,0.0,5.0,93,0.00,,,0.00,Weather View 32 v70,2013-02-28 21:40:00,
2013-02-28 13:45:00,48.4,46.4,29.88,SE,129,0.0,5.0,93,0.00,,,0.00,Weather View 32 v70,2013-02-28 21:45:00,
2013-02-28 13:50:00,48.6,46.6,29.88,SSE,153,0.0,5.0,93,0.00,,,0.00,Weather View 32 v70,2013-02-28 21:50:00,
2013-02-28 13:55:00,48.6,46.6,29.88,ENE,66,0.0,5.0,93,0.00,,,0.00,Weather View 32 v70,2013-02-28 21:55:00,
2013-02-28 14:05:00,48.4,46.4,29.88,ENE,65,3.0,5.0,93,0.00,,,0.00,Weather View 32 v70,2013-02-28 22:05:00,
2013-02-28 14:10:00,48.2,46.3,29.88,SE,142,4.0,5.0,93,0.00,,,0.00,Weather View 32 v70,2013-02-28 22:10:00,
2013-02-28 14:15:00,48.0,46.1,29.88,East,98,5.0,5.0,93,0.00,,,0.00,Weather View 32 v70,2013-02-28 22:15:00,
2013-02-28 14:20:00,47.8,45.9,29.88,SSE,163,0.0,5.0,93,0.00,,,0.00,Weather View 32 v70,2013-02-28 22:20:00,
2013-02-28 14:25:00,47.7,45.7,29.88,SE,144,2.0,5.0,93,0.00,,,0.00,Weather View 32 v70,2013-02-28 22:25:00,
2013-02-28 14:35:00,47.5,45.6,29.88,SSE,153,0.0,5.0,93,0.00,,,0.00,Weather View 32 v70,2013-02-28 22:35:00,
2013-02-28 14:40:00,47.7,45.7,29.88,SE,144,0.0,5.0,93,0.00,,,0.00,Weather View 32 v70,2013-02-28 22:40:00,
2013-02-28 14:45:00,47.7,45.7,29.88,East,95,0.0,5.0,93,0.00,,,0.00,Weather View 32 v70,2013-02-28 22:45:00,
2013-02-28 14:50:00,47.7,45.7,29.88,SSE,162,3.0,5.0,93,0.00,,,0.00,Weather View 32 v70,2013-02-28 22:50:00,
2013-02-28 14:55:00,47.5,45.6,29.91,ESE,119,4.0,5.0,93,0.00,,,0.00,Weather View 32 v70,2013-02-28 22:55:00,
2013-02-28 15:00:00,47.5,45.6,29.91,ESE,119,2.0,5.0,93,0.00,,,0.00,Weather View 32 v70,2013-02-28 23:00:00,
2013-02-28 15:09:00,47.5,45.6,29.91,SSE,156,0.0,5.0,93,0.00,,,0.00,Weather View 32 v70,2013-02-28 23:09:00,
2013-02-28 15:15:00,47.5,45.6,29.91,SE,140,4.0,5.0,93,0.00,,,0.00,Weather View 32 v70,2013-02-28 23:15:00,
2013-02-28 15:20:00,47.3,45.4,29.91,ESE,106,0.0,4.0,93,0.00,,,0.00,Weather View 32 v70,2013-02-28 23:20:00,
2013-02-28 15:25:00,47.3,45.4,29.91,SE,135,0.0,4.0,93,0.00,,,0.00,Weather View 32 v70,2013-02-28 23:25:00,
2013-02-28 15:30:00,47.5,45.6,29.91,SSE,152,0.0,5.0,93,0.00,,,0.00,Weather View 32 v70,2013-02-28 23:30:00,
2013-02-28 15:40:00,47.5,45.6,29.91,SSE,152,0.0,5.0,93,0.00,,,0.00,Weather View 32 v70,2013-02-28 23:40:00,
2013-02-28 15:45:00,47.5,45.6,29.91,SSE,152,0.0,5.0,93,0.00,,,0.00,Weather View 32 v70,2013-02-28 23:45:00,
2013-02-28 15:55:00,47.7,46.0,29.91,SSE,152,0.0,5.0,94,0.00,,,0.00,Weather View 32 v70,2013-02-28 23:55:00,
2013-02-28 16:00:00,47.7,46.0,29.91,SSE,152,0.0,5.0,94,0.00,,,0.00,Weather View 32 v70,2013-03-01 00:00:00,
2013-02-28 16:05:00,47.8,46.2,29.91,SSE,152,0.0,5.0,94,0.00,,,0.00,Weather View 32 v70,2013-03-01 00:05:00,
2013-02-28 16:10:00,47.8,46.2,29.91,SSE,152,2.0,5.0,94,0.00,,,0.00,Weather View 32 v70,2013-03-01 00:10:00,
2013-02-28 16:15:00,47.8,46.2,29.91,SSE,152,0.0,5.0,94,0.00,,,0.00,Weather View 32 v70,2013-03-01 00:15:00,
2013-02-28 16:20:00,47.8,46.2,29.91,SSE,152,2.0,5.0,94,0.00,,,0.00,Weather View 32 v70,2013-03-01 00:20:00,
2013-02-28 16:30:00,48.0,46.4,29.91,SSE,150,6.0,6.0,94,0.00,,,0.00,Weather View 32 v70,2013-03-01 00:30:00,
2013-02-28 16:40:00,48.7,47.1,29.91,SSW,197,0.0,8.0,94,0.00,,,0.00,Weather View 32 v70,2013-03-01 00:40:00,
2013-02-28 16:45:00,48.9,47.3,29.91,South,179,3.0,8.0,94,0.00,,,0.00,Weather View 32 v70,2013-03-01 00:45:00,
2013-02-28 16:50:00,49.3,47.6,29.91,South,176,3.0,8.0,94,0.00,,,0.00,Weather View 32 v70,2013-03-01 00:50:00,
2013-02-28 16:55:00,49.5,47.8,29.91,SSE,166,4.0,8.0,94,0.00,,,0.00,Weather View 32 v70,2013-03-01 00:55:00,
2013-02-28 17:00:00,49.5,47.8,29.91,South,171,0.0,9.0,94,0.00,,,0.00,Weather View 32 v70,2013-03-01 01:00:00,
2013-02-28 17:05:00,49.6,48.0,29.91,SSE,154,2.0,9.0,94,0.00,,,0.00,Weather View 32 v70,2013-03-01 01:05:00,
2013-02-28 17:10:00,49.6,48.0,29.88,South,176,0.0,9.0,94,0.00,,,0.00,Weather View 32 v70,2013-03-01 01:10:00,
2013-02-28 17:15:00,49.6,48.0,29.88,SSE,151,4.0,9.0,94,0.00,,,0.00,Weather View 32 v70,2013-03-01 01:15:00,
2013-02-28 17:20:00,49.6,48.0,29.88,ESE,118,6.0,9.0,94,0.00,,,0.00,Weather View 32 v70,2013-03-01 01:20:00,
2013-02-28 17:25:00,49.8,48.2,29.91,SW,225,0.0,10.0,94,0.00,,,0.00,Weather View 32 v70,2013-03-01 01:25:00,
2013-02-28 17:30:00,49.8,48.2,29.91,South,190,6.0,10.0,94,0.00,,,0.00,Weather View 32 v70,2013-03-01 01:30:00,
2013-02-28 17:35:00,50.0,48.3,29.91,SSE,168,0.0,11.0,94,0.00,,,0.00,Weather View 32 v70,2013-03-01 01:35:00,
2013-02-28 17:45:00,49.8,48.2,29.88,SSW,196,3.0,11.0,94,0.00,,,0.00,Weather View 32 v70,2013-03-01 01:45:00,
2013-02-28 17:50:00,50.0,48.3,29.88,SW,228,6.0,11.0,94,0.00,,,0.00,Weather View 32 v70,2013-03-01 01:50:00,
2013-02-28 17:55:00,50.0,48.3,29.88,SE,142,3.0,11.0,94,0.00,,,0.00,Weather View 32 v70,2013-03-01 01:55:00,
2013-02-28 18:05:00,50.0,48.3,29.88,South,177,6.0,11.0,94,0.00,,,0.00,Weather View 32 v70,2013-03-01 02:05:00,
2013-02-28 18:10:00,50.0,48.3,29.91,SSE,154,8.0,11.0,94,0.00,,,0.00,Weather View 32 v70,2013-03-01 02:10:00,
2013-02-28 18:15:00,50.2,48.5,29.91,SSE,160,4.0,11.0,94,0.00,,,0.00,Weather View 32 v70,2013-03-01 02:15:00,
2013-02-28 18:20:00,50.0,48.3,29.91,SW,220,3.0,11.0,94,0.00,,,0.00,Weather View 32 v70,2013-03-01 02:20:00,
2013-02-28 18:30:00,50.2,48.5,29.91,SSW,196,2.0,11.0,94,0.00,,,0.00,Weather View 32 v70,2013-03-01 02:30:00,
2013-02-28 18:35:00,50.2,48.5,29.91,South,186,3.0,11.0,94,0.00,,,0.00,Weather View 32 v70,2013-03-01 02:35:00,
2013-02-28 18:40:00,50.2,48.5,29.91,SW,216,0.0,11.0,94,0.00,,,0.00,Weather View 32 v70,2013-03-01 02:40:00,
2013-02-28 18:50:00,50.2,48.5,29.91,SSW,193,11.0,11.0,94,0.00,,,0.00,Weather View 32 v70,2013-03-01 02:50:00,
2013-02-28 18:55:00,50.2,48.5,29.91,SSW,201,3.0,11.0,94,0.00,,,0.00,Weather View 32 v70,2013-03-01 02:55:00,
2013-02-28 19:00:00,50.2,48.5,29.91,SSW,197,5.0,11.0,94,0.00,,,0.00,Weather View 32 v70,2013-03-01 03:00:00,
2013-02-28 19:05:00,50.2,48.5,29.91,South,169,3.0,11.0,94,0.00,,,0.00,Weather View 32 v70,2013-03-01 03:05:00,
2013-02-28 19:10:00,50.4,49.0,29.91,South,182,4.0,11.0,95,0.00,,,0.00,Weather View 32 v70,2013-03-01 03:10:00,
2013-02-28 19:20:00,50.4,49.0,29.91,South,177,0.0,11.0,95,0.00,,,0.00,Weather View 32 v70,2013-03-01 03:20:00,
2013-02-28 19:25:00,50.4,49.0,29.91,SSW,201,2.0,11.0,95,0.00,,,0.00,Weather View 32 v70,2013-03-01 03:25:00,
2013-02-28 19:30:00,50.4,49.0,29.91,SSW,192,0.0,11.0,95,0.00,,,0.00,Weather View 32 v70,2013-03-01 03:30:00,
2013-02-28 19:35:00,50.4,49.0,29.91,South,174,0.0,11.0,95,0.00,,,0.00,Weather View 32 v70,2013-03-01 03:35:00,
2013-02-28 19:40:00,50.4,49.0,29.94,South,177,3.0,11.0,95,0.00,,,0.00,Weather View 32 v70,2013-03-01 03:40:00,
2013-02-28 19:45:00,50.4,49.0,29.94,SSW,206,4.0,11.0,95,0.00,,,0.00,Weather View 32 v70,2013-03-01 03:45:00,
2013-02-28 19:55:00,50.5,49.2,29.94,SW,218,3.0,8.0,95,0.00,,,0.00,Weather View 32 v70,2013-03-01 03:55:00,
2013-02-28 20:00:00,50.4,49.0,29.94,SSE,165,0.0,8.0,95,0.00,,,0.00,Weather View 32 v70,2013-03-01 04:00:00,
2013-02-28 20:05:00,50.4,49.0,29.94,SSW,200,3.0,8.0,95,0.00,,,0.00,Weather View 32 v70,2013-03-01 04:05:00,
2013-02-28 20:10:00,50.5,49.2,29.91,South,184,2.0,7.0,95,0.00,,,0.00,Weather View 32 v70,2013-03-01 04:10:00,
2013-02-28 20:15:00,50.4,49.0,29.91,SSW,208,2.0,8.0,95,0.00,,,0.00,Weather View 32 v70,2013-03-01 04:15:00,
2013-02-28 20:25:00,50.5,49.2,29.91,SSW,194,0.0,8.0,95,0.00,,,0.00,Weather View 32 v70,2013-03-01 04:25:00,
2013-02-28 20:30:00,50.5,49.2,29.91,SSW,199,3.0,8.0,95,0.00,,,0.00,Weather View 32 v70,2013-03-01 04:30:00,
2013-02-28 20:35:00,50.5,49.2,29.91,SSW,202,4.0,8.0,95,0.00,,,0.00,Weather View 32 v70,2013-03-01 04:35:00,
2013-02-28 20:40:00,50.5,49.2,29.94,SSE,152,4.0,8.0,95,0.00,,,0.00,Weather View 32 v70,2013-03-01 04:40:00,
2013-02-28 20:45:00,50.5,49.2,29.94,SW,217,0.0,8.0,95,0.00,,,0.00,Weather View 32 v70,2013-03-01 04:45:00,
2013-02-28 20:50:00,50.5,49.2,29.94,South,173,0.0,8.0,95,0.00,,,0.00,Weather View 32 v70,2013-03-01 04:50:00,
2013-02-28 21:00:00,50.5,49.2,29.94,South,177,3.0,8.0,95,0.00,,,0.00,Weather View 32 v70,2013-03-01 05:00:00,
2013-02-28 21:03:00,50.5,49.2,29.94,South,177,3.0,8.0,95,0.00,,,0.00,Weather View 32 v70,2013-03-01 05:03:00,
2013-02-28 21:10:00,50.5,49.2,29.94,South,176,2.0,8.0,95,0.00,,,0.00,Weather View 32 v70,2013-03-01 05:10:00,
2013-02-28 21:15:00,50.5,49.2,29.94,SW,231,4.0,8.0,95,0.00,,,0.00,Weather View 32 v70,2013-03-01 05:15:00,
2013-02-28 21:20:00,50.5,49.2,29.94,South,175,0.0,8.0,95,0.00,,,0.00,Weather View 32 v70,2013-03-01 05:20:00,
2013-02-28 21:25:00,50.4,49.0,29.94,SSE,151,6.0,8.0,95,0.00,,,0.00,Weather View 32 v70,2013-03-01 05:25:00,
2013-02-28 21:35:00,50.4,49.0,29.94,SSE,166,3.0,10.0,95,0.00,,,0.00,Weather View 32 v70,2013-03-01 05:35:00,
2013-02-28 21:40:00,50.4,49.0,29.94,SSW,203,0.0,10.0,95,0.00,,,0.00,Weather View 32 v70,2013-03-01 05:40:00,
2013-02-28 21:45:00,50.4,49.0,29.94,WSW,239,2.0,10.0,95,0.00,,,0.00,Weather View 32 v70,2013-03-01 05:45:00,
2013-02-28 21:50:00,50.4,49.0,29.94,South,169,5.0,10.0,95,0.00,,,0.00,Weather View 32 v70,2013-03-01 05:50:00,
2013-02-28 21:55:00,50.4,49.0,29.97,SSW,209,0.0,10.0,95,0.00,,,0.00,Weather View 32 v70,2013-03-01 05:55:00,
2013-02-28 22:04:00,50.4,49.0,29.97,SSW,198,3.0,10.0,95,0.00,,,0.00,Weather View 32 v70,2013-03-01 06:04:00,
2013-02-28 22:10:00,50.4,49.0,29.97,South,190,0.0,10.0,95,0.00,,,0.00,Weather View 32 v70,2013-03-01 06:10:00,
2013-02-28 22:15:00,50.4,49.0,29.97,SW,232,0.0,10.0,95,0.00,,,0.00,Weather View 32 v70,2013-03-01 06:15:00,
2013-02-28 22:20:00,50.4,49.0,29.97,East,80,0.0,10.0,95,0.00,,,0.00,Weather View 32 v70,2013-03-01 06:20:00,
2013-02-28 22:30:00,50.4,49.0,29.97,SE,135,3.0,10.0,95,0.00,,,0.00,Weather View 32 v70,2013-03-01 06:30:00,
2013-02-28 22:35:00,50.4,49.0,29.97,South,188,3.0,10.0,95,0.00,,,0.00,Weather View 32 v70,2013-03-01 06:35:00,
2013-02-28 22:45:00,50.2,48.8,29.97,South,191,3.0,6.0,95,0.00,,,0.00,Weather View 32 v70,2013-03-01 06:45:00,
2013-02-28 22:50:00,50.2,48.8,29.97,SW,225,3.0,6.0,95,0.00,,,0.00,Weather View 32 v70,2013-03-01 06:50:00,
2013-02-28 23:00:00,50.2,48.8,29.94,SSE,157,0.0,6.0,95,0.00,,,0.00,Weather View 32 v70,2013-03-01 07:00:00,
2013-02-28 23:05:00,50.2,48.8,29.94,North,3,0.0,6.0,95,0.00,,,0.00,Weather View 32 v70,2013-03-01 07:05:00,
2013-02-28 23:15:00,50.2,48.8,29.97,SE,145,4.0,8.0,95,0.00,,,0.00,Weather View 32 v70,2013-03-01 07:15:00,
2013-02-28 23:25:00,50.4,49.0,29.94,SSE,165,0.0,8.0,95,0.00,,,0.00,Weather View 32 v70,2013-03-01 07:25:00,
2013-02-28 23:35:00,50.2,48.8,29.94,East,88,0.0,8.0,95,0.00,,,0.00,Weather View 32 v70,2013-03-01 07:35:00,
2013-02-28 23:40:00,50.2,48.8,29.97,South,190,0.0,8.0,95,0.00,,,0.00,Weather View 32 v70,2013-03-01 07:40:00,
2013-02-28 23:45:00,50.2,48.8,29.97,SW,229,2.0,8.0,95,0.00,,,0.00,Weather View 32 v70,2013-03-01 07:45:00,
2013-02-28 23:50:00,50.2,48.8,29.97,SW,223,0.0,8.0,95,0.00,,,0.00,Weather View 32 v70,2013-03-01 07:50:00,
2013-02-28 23:55:00,50.2,48.8,29.97,SW,223,0.0,8.0,95,0.00,,,0.00,Weather View 32 v70,2013-03-01 07:55:00,